Weather in Kosolmanka

Russia / Sverdlovsk Oblast     58°44′46″N   60°32′08″E
temp.,
°C
wind,
m/s
gust,
m/s
humid.,
%
clouds,
%
prec.,
mm/h
press.,
hPa
HPBL,
m
15 may, sat
sat1523:00+17nw397697 3.3 1020196
02:00+15ssw3587100 1.1 102088
05:00+15sw38845 1.1 1019147
08:00+21sw412629 0.0 1018401
11:00+27wsw6113687 0.0 10171596
14:00+28w6103295 0.0 10162432
17:00+22sw8136099 0.6 1017722
20:00+23w4104619 0.5 1016462
16 may, sun
sun1623:00+18wsw376398 0.5 1016140
02:00+20wsw51463100 0.0 1015583
05:00+19wsw41458100 0.0 1015600
08:00+22wnw48516 0.0 1016639
11:00+27w48355 0.0 10171635
14:00+30w59225 0.0 10162544
17:00+30w59225 0.0 10153426
20:00+26wsw410315 0.0 1015365
17 may, mon
mon1723:00+22sw513435 0.0 1015465
02:00+20wsw4145336 0.0 1015461
05:00+18sw3962100 0.0 1015202
08:00+22wsw4850100 0.0 1016415
11:00+26wsw4838100 0.0 10151443
14:00+28w61030100 0.0 10133022
17:00+28wnw613306 0.1 10133492
20:00+23nnw3745100 0.0 1014301
18 may, tue
tue1823:00+19wnw225599 0.0 101531
02:00+19wsw2453100 0.0 101580
05:00+18w2757100 0.0 1015161
08:00+22wnw36462 0.0 1016730
11:00+25nw583078 0.0 10162920
14:00+27nw592583 0.0 10153574
17:00+26nnw682938 0.0 10152458
20:00+18e366323 0.0 1018504
19 may, wed
wed1923:00+16nne117289 0.0 102022
02:00+13ne24895 0.0 102278
05:00+11ene23974 0.0 102380
08:00+16se23724 0.0 1023546
11:00+21se225179 0.0 10231317
14:00+25ssw23395 0.0 10221910
17:00+26sw233240 0.0 10202161
20:00+23se244519 0.0 102069